Location: Unspecified
(43.4354°N, 0.0000°E)
Time: 07:28:44
(UTC+00:00)

Transit 2A - Pass Details

Date: 18 June 2019
Orbit: 595 x 964 km, 66.7° (Epoch: 21 July)

Event Time Altitude Azimuth Distance (km) Brightness Sun altitude
Rises 00:55:47 0° 199° (SSW) 3,593 - -22.0°
Reaches altitude 10° 00:58:19 10° 196° (SSW) 2,674 - -21.9°
Exits shadow 01:02:23 41° 181° (S) 1,364 6.8 -21.7°
Maximum altitude 01:04:34 65° 117° (ESE) 1,055 6.6 -21.6°
Drops below altitude 10° 01:10:49 10° 37° (NE) 2,675 9.8 -21.3°
Sets 01:13:21 0° 34° (NE) 3,595 10.8 -21.1°
